Location: Calvatone
(45.1167°N, 10.4333°E)
Time: 15:33:39
(UTC+00:00)

Cosmos 2360 Rocket - Pass Details

Date: 28 January 2023
Orbit: 832 x 846 km, 71.0° (Epoch: 30 March)

Event Time Altitude Azimuth Distance (km) Brightness Sun altitude
Rises 17:53:52 0° 160° (SSE) 3,369 5.2 -16.7°
Reaches altitude 10° 17:56:57 10° 143° (SE) 2,443 4.3 -17.2°
Enters shadow 17:58:26 15° 130° (SE) 2,112 3.9 -17.4°
